Location: Waco, TX
(31.5480°N, 97.1670°W)
Time: 08:16:07
(UTC-05:00)

ISS - Pass Details

Date: 18 October 2019
Orbit: 411 x 421 km, 51.6° (Epoch: 18 October)

Event Time Altitude Azimuth Distance (km) Brightness Sun altitude
Rises 15:40:14 0° 331° (NNW) 2,347 -0.1 35.9°
Reaches altitude 10° 15:42:55 10° 354° (N) 1,481 -1.2 35.4°
Maximum altitude 15:45:04 16° 35° (NE) 1,165 -1.8 35.1°
Drops below altitude 10° 15:47:13 10° 75° (ENE) 1,474 -1.3 34.8°
Sets 15:49:53 0° 98° (E) 2,332 -0.3 34.3°
